This demonstration page uses our WeatherBlox Daily Observations layout. Learn more.

Left ArrowRight Arrow

53.62937, 11.41316

Hourly Observations for March 22, 2018

Temp ( °F °C ) Dew Point ( °F °C ) Humidity (%) Winds ( mph kmh ) Pressure ( in mb ) Visibility ( mi km ) Precip ( " mm )
7:20 am 07:20 Mostly Cloudy with Mist and Fog 36 2 36 2 100 100 WSW 17 28 29.80 1009 2 3 N/A
7:50 am 07:50 Mostly Cloudy 36 2 36 2 100 100 WSW 16 26 29.80 1009 4 6 N/A
8:20 am 08:20 Mostly Cloudy 37 3 37 3 100 100 W 15 24 29.77 1008 30 48 N/A
8:50 am 08:50 Mostly Cloudy 37 3 37 3 100 100 WSW 16 26 29.77 1008 4 7 N/A
9:20 am 09:20 Mostly Cloudy with Mist and Fog 37 3 37 3 100 100 WSW 15 24 29.77 1008 2 4 N/A
9:50 am 09:50 Cloudy with Mist and Fog 37 3 37 3 100 100 WSW 14 22 29.77 1008 3 4 N/A
10:20 am 10:20 Cloudy with Drizzle 39 4 39 4 100 100 W 12 19 29.77 1008 2 3 N/A
10:50 am 10:50 Cloudy with Mist and Fog 39 4 39 4 100 100 W 13 20 29.77 1008 3 4 N/A
11:20 am 11:20 Mostly Cloudy 41 5 41 5 100 100 W 13 20 29.77 1008 3 5 N/A
11:50 am 11:50 Mostly Cloudy 43 6 43 6 100 100 W 14 22 29.77 1008 30 48 N/A
12:20 pm 12:20 Mostly Cloudy with Drizzle 43 6 43 6 100 100 W 7 11 29.77 1008 2 4 N/A
12:50 pm 12:50 Mostly Cloudy with Drizzle 43 6 43 6 100 100 WNW 7 11 29.77 1008 2 3 N/A
1:20 pm 13:20 Mostly Cloudy with Drizzle 43 6 43 6 100 100 WNW 6 9 29.77 1008 1 2 N/A
1:50 pm 13:50 Mostly Cloudy with Drizzle 43 6 43 6 100 100 WNW 7 11 29.77 1008 1 2 N/A
2:20 pm 14:20 Mostly Cloudy with Mist and Fog 43 6 43 6 100 100 WNW 6 9 29.77 1008 3 5 N/A
2:50 pm 14:50 Mostly Cloudy with Drizzle 43 6 43 6 100 100 WNW 3 6 29.77 1008 4 6 N/A
3:20 pm 15:20 Mostly Cloudy 43 6 43 6 100 100 WNW 3 6 29.77 1008 6 9 N/A
3:50 pm 15:50 Mostly Cloudy with Drizzle 43 6 43 6 100 100 WNW 6 9 29.77 1008 4 6 N/A
4:20 pm 16:20 Mostly Cloudy 43 6 43 6 100 100 WNW 5 7 29.77 1008 30 48 N/A
4:50 pm 16:50 Mostly Cloudy 43 6 43 6 100 100 VRB 3 6 29.77 1008 30 48 N/A
5:20 pm 17:20 Mostly Cloudy 43 6 43 6 100 100 VRB 2 4 29.77 1008 30 48 N/A
5:50 pm 17:50 Mostly Cloudy with Drizzle 43 6 43 6 100 100 VRB 1 2 29.80 1009 5 8 N/A
6:20 pm 18:20 Mostly Cloudy with Drizzle 41 5 41 5 100 100 VRB 2 4 29.80 1009 4 7 N/A

Powered by AerisWeather